Flag for Taiwan Weather past 2 weeks in Taichung, Taiwan

Now
61 °F

Passing clouds.


Feels Like: 61 °F
Forecast: 64 / 73 °F
Wind: 12 mph from Northeast

Location: Chiang Kai Shek

Current Time: Mar 1, 2015 at 12:35:46 AM

Latest Report: Mar 1, 2015 at 12:00 AM


Visibility: 2 mi

Pressure: 30.09 "Hg

Humidity: 94%

Dew point: 59 °F

Location of TaichungLocation

Historic Weather in Taichung — Graph

°F

Taichung temperature yesterday

Maximum temperature yesterday: 64 °F (at 9:30 AM)
Minimum temperature yesterday: 61 °F (at 12:00 AM)
Average temperature yesterday: 62 °F

Past Weeks' High & Low Weather Summary

 TemperatureHumidityPressure
High81 °F (Feb 21, 1:00 PM)100% (Feb 23, 7:45 PM)30.24 "Hg (Feb 23, 7:45 PM)
Low57 °F (Feb 15, 7:00 PM)36% (Feb 14, 10:30 AM)29.89 "Hg (Feb 25, 2:00 PM)
Average64 °F80%30.04 "Hg
* Reported Feb 13 11:00 PM — Feb 28 11:00 PM, Taichung, Weather by CustomWeather, © 2015

Note: Actual official high and low records may vary slightly from our data, if they occured in-between our weather recording intervals... More about our weather records

Advertising

Taichung weather history for previous 24 hours

 ConditionsComfort  
Time TempWeatherWind HumidityBarometerVisibility
11:00 PM
Sat, Feb 28
63 °FPartly cloudy.15 mph88%30.09 "Hg3 mi
10:55 PM63 °FPartly cloudy.13 mph88%30.09 "Hg3 mi
10:30 PM63 °FPassing clouds.10 mph88%30.09 "Hg5 mi
10:00 PM63 °FPassing clouds.8 mph88%30.07 "Hg5 mi
9:30 PM63 °FPassing clouds.7 mph88%30.07 "Hg5 mi
9:00 PM63 °FPassing clouds.5 mph88%30.07 "Hg4 mi
8:30 PM63 °FPassing clouds.2 mph88%30.07 "Hg5 mi
8:00 PM63 °FPartly cloudy.6 mph88%30.04 "Hg6 mi
7:30 PM61 °FPartly cloudy.9 mph94%30.04 "Hg4 mi
7:00 PM61 °FPartly cloudy.9 mph94%30.01 "Hg4 mi
6:30 PM61 °FFog.10 mph94%30.01 "Hg3 mi
6:00 PM61 °FDrizzle. Fog.9 mph94%30.01 "Hg2 mi
5:30 PM61 °FDrizzle. Fog.10 mph94%30.01 "Hg2 mi
5:00 PM61 °FFog.8 mph94%29.98 "Hg2 mi
4:30 PM61 °FBroken clouds.9 mph94%29.98 "Hg4 mi
4:00 PM63 °FBroken clouds.8 mph88%29.98 "Hg5 mi
3:30 PM63 °FBroken clouds.7 mph88%29.98 "Hg5 mi
3:00 PM61 °FBroken clouds.8 mph94%29.98 "Hg4 mi
2:30 PM63 °FBroken clouds.7 mph88%29.98 "Hg4 mi
2:00 PM61 °FFog.7 mph94%30.01 "Hg3 mi
1:30 PM61 °FFog.8 mph94%30.04 "Hg2 mi
1:00 PM61 °FFog.10 mph94%30.04 "Hg2 mi
12:30 PM63 °FBroken clouds.10 mph88%30.07 "Hg4 mi
11:30 AM64 °FBroken clouds.9 mph83%30.09 "HgN/A
11:00 AM64 °FBroken clouds.10 mph88%30.09 "HgN/A
10:30 AM64 °FBroken clouds.9 mph88%30.09 "HgN/A
10:00 AM64 °FBroken clouds.10 mph88%30.09 "HgN/A
9:30 AM64 °FBroken clouds.10 mph83%30.09 "HgN/A
9:00 AM63 °FBroken clouds.9 mph88%30.09 "HgN/A
8:30 AM63 °FBroken clouds.12 mph88%30.09 "Hg6 mi
8:00 AM61 °FCloudy.10 mph94%30.09 "Hg6 mi
7:30 AM61 °FCloudy.9 mph94%30.09 "Hg5 mi
7:00 AM61 °FBroken clouds.9 mph94%30.09 "Hg4 mi
6:30 AM61 °FFog.12 mph94%30.09 "Hg3 mi
6:00 AM61 °FPartly cloudy.13 mph94%30.09 "Hg4 mi
5:00 AM61 °FPartly cloudy.14 mph94%30.09 "Hg4 mi
4:30 AM61 °FPartly cloudy.14 mph94%30.09 "Hg6 mi
4:00 AM61 °FPartly cloudy.13 mph88%30.09 "HgN/A
3:30 AM61 °FPartly cloudy.14 mph88%30.09 "HgN/A
3:00 AM61 °FPartly cloudy.16 mph88%30.09 "Hg4 mi
2:30 AM61 °FLight rain. Fog.16 mph94%30.09 "Hg3 mi
2:00 AM61 °FLight rain. Fog.15 mph94%30.09 "Hg2 mi
1:30 AM61 °FDrizzle. Fog.17 mph94%30.09 "Hg3 mi
1:00 AM61 °FDrizzle. Fog.16 mph94%30.12 "Hg3 mi
12:30 AM61 °FDrizzle. Fog.17 mph94%30.12 "Hg3 mi
12:00 AM61 °FDrizzle. Fog.20 mph94%30.12 "Hg3 mi
Weather by CustomWeather, © 2015

See weather overviewHow to use our weather pages